Weather History for Three Rivers, MI

Change the Weather History Date:

Wednesday, February 1, 2012

  Actual Average Record
Temperature  
Mean Temperature 44 °F -  
Max Temperature 51 °F 34 °F 63 °F (1989)
Min Temperature 36 °F 19 °F -3 °F (1971)
Degree Days  
Heating Degree Days 22    
Moisture  
Dew Point 37 °F    
Average Humidity 87    
Maximum Humidity 95    
Minimum Humidity 81    
Precipitation  
Precipitation 0.00 in - - ()
Sea Level Pressure  
Sea Level Pressure 30.03 in    
Wind  
Wind Speed 8 mph (WNW)    
Max Wind Speed 15 mph    
Max Gust Speed 20 mph    
Visibility 9 miles    
Events      
Averages and records for this station are not official NWS values.
T = Trace of Precipitation, MM = Missing Value Source: NWS Daily Summary

Daily Weather History Graph

Daily Weather History Graph

Search for Another Location

Airport:

Trip Planner

Search our weather history database for the weather conditions in past years. The results will help you decide how hot, cold, wet, or windy it might be!

Date:

Astronomy

Feb. 01, 2012 Rise Set
Actual Time 7:55 AM EST 5:56 PM EST
Civil Twilight 7:25 AM EST 6:26 PM EST
Nautical Twilight 6:52 AM EST 6:59 PM EST
Astronomical Twilight 6:19 AM EST 7:32 PM EST
Moon 12:22 PM EST (2/1) 2:42 AM EST (2/1)
Length of Visible Light 11h 00m
Length of Day
10h 01m
Waxing Gibbous, 64% of the Moon is Illuminated
Feb 1
Waxing Gibbous
Feb 7
Full
Feb 14
Last Quarter
Feb 21
New
Feb 29
First Quarter

Hourly Weather History & Observations

Time (EST) Temp. Windchill Dew Point Humidity Pressure Visibility Wind Dir Wind Speed Gust Speed Precip Events Conditions
12:15 AM 50.5 °F - 49.1 °F 95% 29.85 in 10.0 mi SW 8.1 mph - N/A   Overcast
12:34 AM 51.3 °F - 49.1 °F 92% 29.85 in 10.0 mi WSW 10.4 mph 16.1 mph N/A   Overcast
12:55 AM 51.1 °F - 49.1 °F 93% 29.85 in 10.0 mi WSW 8.1 mph - N/A   Scattered Clouds
1:14 AM 50.9 °F - 48.7 °F 92% 29.86 in 10.0 mi WSW 9.2 mph 16.1 mph N/A   Scattered Clouds
1:34 AM 50.9 °F - 48.7 °F 92% 29.86 in 10.0 mi WSW 9.2 mph - N/A   Mostly Cloudy
1:55 AM 50.2 °F - 48.0 °F 92% 29.87 in 10.0 mi West 11.5 mph 16.1 mph N/A   Mostly Cloudy
2:15 AM 49.3 °F - 47.5 °F 94% 29.88 in 10.0 mi West 15.0 mph - N/A   Mostly Cloudy
2:35 AM 47.8 °F - 44.1 °F 87% 29.89 in 10.0 mi WNW 13.8 mph 19.6 mph N/A   Scattered Clouds
2:55 AM 46.0 °F 39.9 °F 41.9 °F 85% 29.90 in 10.0 mi WNW 13.8 mph - N/A   Clear
3:14 AM 44.6 °F 38.4 °F 41.0 °F 87% 29.91 in 10.0 mi WNW 12.7 mph - N/A   Clear
3:35 AM 43.5 °F 37.1 °F 40.1 °F 88% 29.92 in 10.0 mi WNW 12.7 mph - N/A   Clear
4:15 AM 41.0 °F 35.2 °F 37.9 °F 89% 29.92 in 10.0 mi WNW 9.2 mph - N/A   Clear
4:35 AM 40.3 °F 34.4 °F 37.4 °F 89% 29.93 in 10.0 mi West 9.2 mph - N/A   Clear
4:54 AM 38.7 °F 32.9 °F 36.5 °F 92% 29.94 in 10.0 mi West 8.1 mph - N/A   Clear
5:15 AM 38.7 °F 32.9 °F 36.7 °F 93% 29.95 in 10.0 mi WNW 8.1 mph - N/A   Clear
5:34 AM 37.2 °F 31.2 °F 35.2 °F 93% 29.96 in 7.0 mi West 8.1 mph - N/A   Clear
6:15 AM 37.0 °F 31.0 °F 35.8 °F 95% 29.97 in 7.0 mi WNW 8.1 mph - N/A   Clear
6:35 AM 37.0 °F 30.4 °F 35.6 °F 95% 29.98 in 7.0 mi West 9.2 mph - N/A   Clear
6:54 AM 37.2 °F 31.2 °F 35.8 °F 95% 29.98 in 7.0 mi WNW 8.1 mph - N/A   Clear
7:15 AM 37.4 °F 31.4 °F 36.0 °F 95% 30.00 in 7.0 mi WNW 8.1 mph - N/A   Mostly Cloudy
7:34 AM 37.9 °F 32.7 °F 36.5 °F 95% 30.01 in 7.0 mi WNW 6.9 mph - N/A   Overcast
7:55 AM 38.3 °F 33.9 °F 36.5 °F 93% 30.02 in 7.0 mi WNW 5.8 mph - N/A   Overcast
8:15 AM 38.3 °F 33.2 °F 36.5 °F 93% 30.03 in 7.0 mi NW 6.9 mph - N/A   Overcast
8:34 AM 38.7 °F 32.9 °F 36.7 °F 93% 30.04 in 7.0 mi NW 8.1 mph - N/A   Overcast
8:55 AM 38.7 °F 33.6 °F 36.5 °F 92% 30.05 in 7.0 mi NW 6.9 mph - N/A   Overcast
9:15 AM 39.0 °F 34.0 °F 36.1 °F 89% 30.05 in 7.0 mi NW 6.9 mph - N/A   Overcast
9:34 AM 38.5 °F 33.4 °F 35.8 °F 90% 30.06 in 7.0 mi NW 6.9 mph - N/A   Overcast
9:55 AM 38.7 °F 32.9 °F 35.6 °F 89% 30.06 in 10.0 mi NW 8.1 mph - N/A   Overcast
10:15 AM 38.8 °F 33.2 °F 35.6 °F 88% 30.07 in 7.0 mi NW 8.1 mph - N/A   Overcast
10:34 AM 39.2 °F 34.2 °F 35.6 °F 87% 30.07 in 10.0 mi WNW 6.9 mph - N/A   Overcast
10:55 AM 39.2 °F 33.6 °F 35.8 °F 88% 30.07 in 10.0 mi NW 8.1 mph - N/A   Overcast
11:14 AM 39.4 °F 34.5 °F 35.8 °F 87% 30.07 in 7.0 mi WNW 6.9 mph - N/A   Overcast
11:34 AM 39.6 °F 35.4 °F 35.8 °F 86% 30.08 in 7.0 mi NNW 5.8 mph - N/A   Overcast
12:15 PM 39.7 °F 35.6 °F 35.6 °F 85% 30.09 in 10.0 mi West 5.8 mph - N/A   Overcast
12:35 PM 40.3 °F 34.4 °F 36.1 °F 85% 30.09 in 10.0 mi West 9.2 mph - N/A   Overcast
1:14 PM 40.3 °F 34.4 °F 36.0 °F 85% 30.09 in 10.0 mi West 9.2 mph - N/A   Overcast
1:35 PM 40.1 °F 35.3 °F 35.6 °F 84% 30.09 in 10.0 mi WNW 6.9 mph - N/A   Overcast
1:55 PM 40.1 °F 36.9 °F 35.6 °F 84% 30.09 in 10.0 mi NW 4.6 mph - N/A   Overcast
2:14 PM 40.3 °F 37.1 °F 35.8 °F 84% 30.09 in 10.0 mi NW 4.6 mph - N/A   Overcast
2:35 PM 40.3 °F 36.3 °F 35.6 °F 83% 30.09 in 10.0 mi WNW 5.8 mph - N/A   Overcast
2:55 PM 40.3 °F 35.5 °F 35.8 °F 84% 30.08 in 10.0 mi WNW 6.9 mph - N/A   Overcast
3:14 PM 40.3 °F 34.9 °F 35.6 °F 83% 30.08 in 10.0 mi NW 8.1 mph - N/A   Overcast
3:35 PM 40.5 °F 36.5 °F 35.4 °F 82% 30.08 in 10.0 mi NW 5.8 mph - N/A   Overcast
3:55 PM 40.3 °F 38.2 °F 35.1 °F 82% 30.09 in 10.0 mi NW 3.5 mph - N/A   Overcast
4:14 PM 40.5 °F 35.8 °F 35.2 °F 82% 30.09 in 10.0 mi WNW 6.9 mph - N/A   Overcast
4:35 PM 40.1 °F 35.3 °F 35.1 °F 82% 30.10 in 10.0 mi NW 6.9 mph - N/A   Overcast
4:54 PM 40.1 °F 34.1 °F 34.7 °F 81% 30.10 in 10.0 mi NW 9.2 mph - N/A   Overcast
5:15 PM 39.7 °F 33.7 °F 34.9 °F 83% 30.10 in 10.0 mi WNW 9.2 mph - N/A   Overcast
5:35 PM 39.6 °F 34.7 °F 34.7 °F 83% 30.11 in 10.0 mi NW 6.9 mph - N/A   Overcast
5:54 PM 39.2 °F 34.2 °F 34.2 °F 82% 30.11 in 10.0 mi WNW 6.9 mph - N/A   Overcast
6:15 PM 39.2 °F 35.0 °F 34.0 °F 82% 30.11 in 10.0 mi NW 5.8 mph - N/A   Overcast
6:35 PM 38.8 °F 35.4 °F 34.2 °F 83% 30.11 in 10.0 mi NNW 4.6 mph - N/A   Overcast
6:54 PM 38.3 °F 34.8 °F 33.8 °F 84% 30.11 in 10.0 mi NNW 4.6 mph - N/A   Overcast
7:15 PM 38.1 °F 33.7 °F 33.8 °F 84% 30.12 in 10.0 mi NW 5.8 mph - N/A   Overcast
7:35 PM 37.9 °F 35.5 °F 33.4 °F 84% 30.12 in 10.0 mi NW 3.5 mph - N/A   Overcast
7:54 PM 37.8 °F 35.3 °F 33.3 °F 84% 30.12 in 10.0 mi NW 3.5 mph - N/A   Overcast
8:15 PM 37.6 °F 33.1 °F 32.9 °F 83% 30.12 in 10.0 mi WNW 5.8 mph - N/A   Overcast
8:34 PM 37.8 °F - 33.1 °F 83% 30.12 in 10.0 mi Calm Calm - N/A   Overcast
8:55 PM 37.8 °F - 33.4 °F 84% 30.12 in 10.0 mi Calm Calm - N/A   Overcast
9:15 PM 37.4 °F - 33.1 °F 84% 30.11 in 10.0 mi Calm Calm - N/A   Overcast
9:34 PM 36.9 °F 33.1 °F 33.3 °F 87% 30.10 in 10.0 mi NNW 4.6 mph - N/A   Overcast
9:55 PM 36.9 °F - 32.7 °F 85% 30.11 in 10.0 mi Calm Calm - N/A   Overcast
10:15 PM 36.7 °F - 32.2 °F 84% 30.12 in 10.0 mi Calm Calm - N/A   Overcast
10:34 PM 36.7 °F 34.1 °F 32.2 °F 84% 30.13 in 10.0 mi NNW 3.5 mph - N/A   Overcast
10:55 PM 36.9 °F - 32.0 °F 83% 30.14 in 10.0 mi Calm Calm - N/A   Overcast
11:14 PM 36.5 °F - 32.2 °F 84% 30.14 in 10.0 mi Calm Calm - N/A   Overcast
11:35 PM 36.3 °F - 32.0 °F 84% 30.14 in 10.0 mi Calm Calm - N/A   Overcast
11:55 PM 36.3 °F - 32.2 °F 85% 30.14 in 10.0 mi Calm Calm - N/A   Overcast